This is the latest recevied weather packets stored in our database for station/object KR8N. If no packets are shown the sender has not sent any weather packets the latest 10 day(s).
| Time | Temp. | Humidity | Pressure | Rain* | Wind** | Luminosity | Snow |
|---|---|---|---|---|---|---|---|
| 1778076288 | 16.67° C | 87% | 1013.4 hPa | 0 mm | - | 326 W/m² | - |
| 1778075985 | 16.11° C | 88% | 1013.3 hPa | 0 mm | - | 325 W/m² | - |
| 1778075683 | 16.11° C | 88% | 1013.2 hPa | 0 mm | - | 290 W/m² | - |
| 1778075378 | 15.56° C | 90% | 1013 hPa | 0 mm | - | 206 W/m² | - |
| 1778075075 | 15.56° C | 90% | 1012.9 hPa | 0 mm | - | 237 W/m² | - |
| 1778074772 | 15.56° C | 90% | 1012.9 hPa | 0 mm | - | 192 W/m² | - |
| 1778074469 | 15° C | 91% | 1012.9 hPa | 0 mm | - | 216 W/m² | - |
| 1778074166 | 15° C | 91% | 1013 hPa | 0 mm | - | 205 W/m² | - |
| 1778073862 | 15° C | 92% | 1012.8 hPa | 0 mm | - | 170 W/m² | - |
| 1778073560 | 15° C | 92% | 1012.8 hPa | 0 mm | - | 169 W/m² | - |
| 1778073256 | 14.44° C | 92% | 1012.8 hPa | 0 mm | - | 116 W/m² | - |
| 1778072954 | 14.44° C | 92% | 1012.9 hPa | 0 mm | - | 138 W/m² | - |
| 1778072650 | 14.44° C | 92% | 1012.9 hPa | 0 mm | - | 145 W/m² | - |
| 1778072348 | 14.44° C | 92% | 1012.9 hPa | 0 mm | - | 131 W/m² | - |
| 1778072046 | 14.44° C | 92% | 1012.8 hPa | 0 mm | - | 70 W/m² | - |
| 1778071744 | 14.44° C | 93% | 1012.9 hPa | 0 mm | - | 65 W/m² | - |
| 1778071441 | 14.44° C | 93% | 1012.9 hPa | 0 mm | - | 96 W/m² | - |
| 1778071139 | 13.89° C | 94% | 1013 hPa | 0 mm | - | 112 W/m² | - |
| 1778070837 | 13.89° C | 94% | 1012.6 hPa | 0 mm | - | 127 W/m² | - |
| 1778070534 | 13.89° C | 95% | 1012.7 hPa | 0 mm | - | 142 W/m² | - |
| 1778070230 | 13.33° C | 95% | 1012.8 hPa | 0 mm | - | 121 W/m² | - |
| 1778069929 | 13.33° C | 95% | 1012.4 hPa | 0 mm | - | 108 W/m² | - |
| 1778069626 | 13.33° C | 95% | 1012.6 hPa | 1.78 mm | - | 70 W/m² | - |
| 1778069322 | 13.33° C | 95% | 1012.9 hPa | 4.83 mm | - | 20 W/m² | - |
| 1778069020 | 13.33° C | 95% | 1012.8 hPa | 6.1 mm | - | 14 W/m² | - |
* Rain latest hour (hover to see other rain measurements)
** Current wind speed in m/s (hover to see current wind gust speed)